Regional Weather Roundup
Issued by NWS State College, PA

Home | Current Version | Previous Version | Text Only | Print | Product List | Glossary Off
Versions: 1 2 3 4 5 6 7 8 9 10 11 12 13 14 15 16 17 18 19 20 21 22 23 24 25 26 27 28 29 30 31 32 33 34 35 36 37 38 39 40 41 42 43 44 45 46 47 48 49 50

000
ASUS41 KCTP 200403
RWRCTP

REGIONAL WEATHER ROUNDUP
NATIONAL WEATHER SERVICE STATE COLLEGE PA
1100 PM EST FRI JAN 19 2018

Note: "fair" indicates few or no clouds below 12,000 feet with no
significant weather and/or obstructions to visibility.

* = STATION THAT DOES NOT REPORT PRECIPITATION /E.G. RAIN...SNOW...ETC/
    THUNDER OR FOG.

PAZ002>004-007>009-013>016-020>023-029>032-200500-
WESTERN PENNSYLVANIA

CITY           SKY/WX    TMP DP  RH WIND       PRES   REMARKS
ERIE           FAIR      37  19  48 S28G35    29.82F
MEADVILLE      FAIR      32  18  56 S16G23    29.88F
FRANKLIN*      FAIR      31  18  58 SW15G23   29.89F
NEW CASTLE     FAIR      32  17  54 VRB7      29.94F
BEAVER COUNTY  NOT AVBL
BUTLER*        FAIR      32  18  56 SW12      29.97S
PITTSBURGH INT FAIR      35  17  47 SW13      29.97S
PITTSBURGH       N/A     31  15  52 MISG      29.98S
INDIANA*       CLEAR     32  18  55 SW10G16   30.01S
LATROBE        FAIR      32  18  55 SW14      30.02R
WASHINGTON CO* NOT AVBL
$$

PAZ004>006-010>012-017>019-024>028-033>037-041-042-045-046-049>053-200500-
CENTRAL PENNSYLVANIA

CITY           SKY/WX    TMP DP  RH WIND       PRES   REMARKS
BRADFORD       FAIR      31  18  58 SW10      29.84F
DUBOIS         FAIR      31  16  54 SW14      29.90F
CLEARFIELD     FAIR      33  18  53 SW14G20   29.93S
JOHNSTOWN      FAIR      31  17  56 SW9       29.93S
ALTOONA        FAIR      37  20  50 SW14      29.97R
STATE COLLEGE  FAIR      36  19  51 SW9       29.94S
WILLIAMSPORT   FAIR      25  19  78 SE3       29.94F
SELINSGROVE    FAIR      23  19  85 CALM      29.97S
FT INDIANTOWN  FAIR      22  22 100 NE3       29.98F
CAPITAL CITY   FAIR      27  21  78 SW3       30.00S
HARRISBURG     FAIR      29  21  72 CALM      29.99S
YORK           FAIR      41  23  48 SW7       29.99F
$$

PAZ038>040-043-044-047-048-054-055-060>062-067>071-200500-
EASTERN PENNSYLVANIA

CITY           SKY/WX    TMP DP  RH WIND       PRES   REMARKS
SCRANTON       FAIR      34  20  56 SW7       29.91F
MOUNT POCONO   FAIR      32  19  58 W16       29.87S
ALLENTOWN      FAIR      29  18  63 SW5       29.97F
QUAKERTOWN*    FAIR      23  18  80 CALM      29.98S
READING        FAIR      28  21  75 CALM      29.98F
LANCASTER      FAIR      29  21  72 W6        29.99F
COATESVILLE    FAIR      37  18  44 VRB5      30.00S
POTTSTOWN      FAIR      26  18  71 CALM      30.00S
BLUE BELL      FAIR      30  21  69 CALM      30.00F
DOYLESTOWN     FAIR      32  18  56 S5        29.97F
WILLOW GROVE   NOT AVBL
NORTH PHILA    FAIR      39  19  44 SW8       30.01S
PHILADELPHIA   FAIR      38  18  44 SW12      30.02S
$$



USA.gov is the U.S. government's official web portal to all federal, state and local government web resources and services.